Location: Bismarck
(46.7731°N, 100.8200°W)
Time: 06:30:47
(UTC-06:00)

ISS - Pass Details

Date: 03 December 2017
Orbit: 403 x 407 km, 51.6° (Epoch: 12 December)

Event Time Altitude Azimuth Distance (km) Brightness Sun altitude
Rises 19:24:47 0° 277° (W) 2,329 1.3 -24.6°
Reaches altitude 10° 19:26:59 10° 287° (WNW) 1,469 -0.1 -25.0°
Enters shadow 19:28:35 23° 306° (NW) 928 -1.6 -25.3°
Maximum altitude 19:30:03 34° 354° (N) 689 - -25.5°
Drops below altitude 10° 19:33:06 10° 62° (ENE) 1,468 - -26.0°
Sets 19:35:18 0° 72° (ENE) 2,328 - -26.4°
